Time,TemperatureF,DewpointF,PressureIn,WindDirection,WindDirectionDegrees,WindSpeedMPH,WindSpeedGustMPH,Humidity,HourlyPrecipIn,Conditions,Clouds,dailyrainin,SoftwareType,DateUTC
2013-02-18 00:12:00,34.7,28.0,29.62,SSE,159,5.0,11.0,77,0.00,,,0.00,weatherlink.com 1.10,2013-02-18 06:12:00,
2013-02-18 00:27:00,34.7,28.0,29.61,SSE,168,9.0,14.0,77,0.00,,,0.00,weatherlink.com 1.10,2013-02-18 06:27:00,
2013-02-18 00:42:00,35.0,28.0,29.61,WSW,238,4.0,10.0,76,0.00,,,0.00,weatherlink.com 1.10,2013-02-18 06:42:00,
2013-02-18 00:57:00,35.2,28.0,29.62,SSW,193,7.0,12.0,76,0.00,,,0.00,weatherlink.com 1.10,2013-02-18 06:57:00,
2013-02-18 01:12:00,35.2,29.0,29.61,SSE,163,5.0,10.0,77,0.00,,,0.00,weatherlink.com 1.10,2013-02-18 07:12:00,
2013-02-18 01:27:00,34.9,28.0,29.61,South,188,5.0,8.0,77,0.00,,,0.00,weatherlink.com 1.10,2013-02-18 07:27:00,
2013-02-18 01:42:00,34.6,28.0,29.61,SSW,198,4.0,8.0,78,0.00,,,0.00,weatherlink.com 1.10,2013-02-18 07:42:00,
2013-02-18 01:57:00,35.0,29.0,29.61,SSW,197,3.0,9.0,78,0.00,,,0.00,weatherlink.com 1.10,2013-02-18 07:57:00,
2013-02-18 02:12:00,35.3,29.0,29.61,South,183,5.0,9.0,78,0.00,,,0.00,weatherlink.com 1.10,2013-02-18 08:12:00,
2013-02-18 02:27:00,35.5,29.0,29.62,South,182,2.0,9.0,77,0.00,,,0.00,weatherlink.com 1.10,2013-02-18 08:27:00,
2013-02-18 02:42:00,35.3,29.0,29.61,SSE,148,2.0,7.0,78,0.00,,,0.00,weatherlink.com 1.10,2013-02-18 08:42:00,
2013-02-18 02:57:00,34.8,29.0,29.61,South,171,7.0,8.0,79,0.00,,,0.00,weatherlink.com 1.10,2013-02-18 08:57:00,
2013-02-18 03:12:00,34.5,29.0,29.60,SSW,211,4.0,7.0,80,0.00,,,0.00,weatherlink.com 1.10,2013-02-18 09:12:00,
2013-02-18 03:27:00,34.2,29.0,29.59,SSW,204,3.0,7.0,80,0.00,,,0.00,weatherlink.com 1.10,2013-02-18 09:27:00,
2013-02-18 03:42:00,34.1,29.0,29.59,SE,133,3.0,6.0,81,0.00,,,0.00,weatherlink.com 1.10,2013-02-18 09:42:00,
2013-02-18 03:57:00,33.9,29.0,29.57,SSW,203,3.0,5.0,81,0.00,,,0.00,weatherlink.com 1.10,2013-02-18 09:57:00,
2013-02-18 04:12:00,33.7,28.0,29.57,South,182,3.0,5.0,81,0.00,,,0.00,weatherlink.com 1.10,2013-02-18 10:12:00,
2013-02-18 04:27:00,32.9,28.0,29.57,SSE,166,2.0,7.0,83,0.00,,,0.00,weatherlink.com 1.10,2013-02-18 10:27:00,
2013-02-18 04:42:00,32.9,28.0,29.59,SSE,165,4.0,8.0,83,0.00,,,0.00,weatherlink.com 1.10,2013-02-18 10:42:00,
2013-02-18 04:57:00,32.7,28.0,29.59,SSW,194,3.0,5.0,84,0.00,,,0.00,weatherlink.com 1.10,2013-02-18 10:57:00,
2013-02-18 05:12:00,32.2,28.0,29.59,SSW,212,0.0,2.0,84,0.00,,,0.00,weatherlink.com 1.10,2013-02-18 11:12:00,
2013-02-18 05:27:00,32.3,29.0,29.59,South,184,1.0,3.0,86,0.00,,,0.00,weatherlink.com 1.10,2013-02-18 11:27:00,
2013-02-18 05:42:00,32.1,28.0,29.59,SSW,192,1.0,3.0,85,0.00,,,0.00,weatherlink.com 1.10,2013-02-18 11:42:00,
2013-02-18 05:57:00,31.7,28.0,29.60,SSW,203,0.0,2.0,87,0.00,,,0.00,weatherlink.com 1.10,2013-02-18 11:57:00,
2013-02-18 06:12:00,31.7,28.0,29.60,SSW,202,0.0,1.0,86,0.00,,,0.00,weatherlink.com 1.10,2013-02-18 12:12:00,
2013-02-18 06:27:00,31.3,28.0,29.59,WNW,288,2.0,4.0,88,0.00,,,0.00,weatherlink.com 1.10,2013-02-18 12:27:00,
2013-02-18 06:42:00,31.9,29.0,29.59,WNW,289,2.0,3.0,88,0.00,,,0.00,weatherlink.com 1.10,2013-02-18 12:42:00,
2013-02-18 06:57:00,32.0,29.0,29.60,West,277,1.0,3.0,89,0.00,,,0.00,weatherlink.com 1.10,2013-02-18 12:57:00,
2013-02-18 07:12:00,32.8,30.0,29.62,SW,229,3.0,3.0,88,0.00,,,0.00,weatherlink.com 1.10,2013-02-18 13:12:00,
2013-02-18 07:27:00,32.3,29.0,29.62,WSW,250,2.0,3.0,87,0.00,,,0.00,weatherlink.com 1.10,2013-02-18 13:27:00,
2013-02-18 07:42:00,32.1,29.0,29.60,WNW,300,3.0,5.0,89,0.00,,,0.00,weatherlink.com 1.10,2013-02-18 13:42:00,
2013-02-18 07:57:00,33.0,30.0,29.61,WNW,298,6.0,8.0,89,0.00,,,0.00,weatherlink.com 1.10,2013-02-18 13:57:00,
2013-02-18 08:12:00,34.0,31.0,29.61,NW,324,5.0,12.0,87,0.00,,,0.00,weatherlink.com 1.10,2013-02-18 14:12:00,
2013-02-18 08:27:00,34.4,31.0,29.62,WNW,290,5.0,10.0,87,0.00,,,0.00,weatherlink.com 1.10,2013-02-18 14:27:00,
2013-02-18 08:42:00,34.3,31.0,29.63,WNW,299,3.0,11.0,87,0.00,,,0.00,weatherlink.com 1.10,2013-02-18 14:42:00,
2013-02-18 08:58:00,34.7,31.0,29.64,NW,308,5.0,7.0,87,0.00,,,0.00,weatherlink.com 1.10,2013-02-18 14:58:00,
2013-02-18 09:27:00,35.7,32.0,29.64,WNW,299,5.0,8.0,85,0.00,,,0.00,weatherlink.com 1.10,2013-02-18 15:27:00,
2013-02-18 09:43:00,36.2,32.0,29.64,WNW,290,5.0,7.0,85,0.00,,,0.00,weatherlink.com 1.10,2013-02-18 15:43:00,
2013-02-18 09:57:00,36.3,32.0,29.64,WNW,293,5.0,10.0,84,0.00,,,0.00,weatherlink.com 1.10,2013-02-18 15:57:00,
2013-02-18 10:12:00,36.2,32.0,29.64,WNW,302,6.0,12.0,85,0.00,,,0.00,weatherlink.com 1.10,2013-02-18 16:12:00,
2013-02-18 10:28:00,36.2,32.0,29.64,NNW,331,5.0,11.0,85,0.00,,,0.00,weatherlink.com 1.10,2013-02-18 16:28:00,
2013-02-18 10:43:00,36.0,32.0,29.64,WNW,302,7.0,10.0,85,0.00,,,0.00,weatherlink.com 1.10,2013-02-18 16:43:00,
2013-02-18 10:58:00,32.1,29.0,29.67,NW,305,9.0,22.0,87,0.00,,,0.00,weatherlink.com 1.10,2013-02-18 16:58:00,
2013-02-18 11:13:00,30.1,26.0,29.67,West,273,9.0,29.0,83,0.00,,,0.00,weatherlink.com 1.10,2013-02-18 17:13:00,
2013-02-18 11:28:00,29.1,24.0,29.68,NW,321,14.0,30.0,82,0.00,,,0.00,weatherlink.com 1.10,2013-02-18 17:28:00,
2013-02-18 11:43:00,28.9,24.0,29.69,NNW,330,12.0,22.0,82,0.00,,,0.00,weatherlink.com 1.10,2013-02-18 17:43:00,
2013-02-18 11:58:00,28.8,24.0,29.69,NW,314,14.0,22.0,82,0.00,,,0.00,weatherlink.com 1.10,2013-02-18 17:58:00,
2013-02-18 12:13:00,28.4,23.0,29.70,NW,325,10.0,21.0,81,0.00,,,0.00,weatherlink.com 1.10,2013-02-18 18:13:00,
2013-02-18 12:28:00,27.4,22.0,29.71,NW,309,16.0,24.0,80,0.00,,,0.00,weatherlink.com 1.10,2013-02-18 18:28:00,
2013-02-18 12:43:00,27.2,22.0,29.71,NNW,333,10.0,25.0,80,0.00,,,0.00,weatherlink.com 1.10,2013-02-18 18:43:00,
2013-02-18 12:58:00,27.2,22.0,29.71,NW,312,10.0,18.0,81,0.00,,,0.00,weatherlink.com 1.10,2013-02-18 18:58:00,
2013-02-18 13:13:00,27.0,21.0,29.72,NNW,329,12.0,26.0,79,0.00,,,0.00,weatherlink.com 1.10,2013-02-18 19:13:00,
2013-02-18 13:28:00,26.6,21.0,29.72,WNW,289,12.0,23.0,79,0.00,,,0.00,weatherlink.com 1.10,2013-02-18 19:28:00,
2013-02-18 13:43:00,26.4,20.0,29.73,NW,309,9.0,19.0,78,0.00,,,0.00,weatherlink.com 1.10,2013-02-18 19:43:00,
2013-02-18 13:58:00,25.0,18.0,29.75,WNW,293,12.0,28.0,74,0.00,,,0.00,weatherlink.com 1.10,2013-02-18 19:58:00,
2013-02-18 14:13:00,24.2,17.0,29.75,NW,311,18.0,27.0,74,0.00,,,0.00,weatherlink.com 1.10,2013-02-18 20:13:00,
2013-02-18 14:29:00,24.3,17.0,29.76,NNW,328,9.0,25.0,73,0.00,,,0.00,weatherlink.com 1.10,2013-02-18 20:29:00,
2013-02-18 14:43:00,24.0,17.0,29.76,NNW,329,21.0,29.0,74,0.00,,,0.00,weatherlink.com 1.10,2013-02-18 20:43:00,
2013-02-18 14:58:00,24.2,17.0,29.77,NW,318,17.0,23.0,74,0.00,,,0.00,weatherlink.com 1.10,2013-02-18 20:58:00,
2013-02-18 15:13:00,23.8,17.0,29.77,NW,306,21.0,24.0,75,0.00,,,0.00,weatherlink.com 1.10,2013-02-18 21:13:00,
2013-02-18 15:29:00,23.3,16.0,29.78,NW,310,19.0,24.0,74,0.00,,,0.00,weatherlink.com 1.10,2013-02-18 21:29:00,
2013-02-18 15:43:00,22.3,15.0,29.78,WNW,297,10.0,27.0,74,0.00,,,0.00,weatherlink.com 1.10,2013-02-18 21:43:00,
2013-02-18 15:59:00,22.2,15.0,29.78,WNW,300,9.0,22.0,74,0.00,,,0.00,weatherlink.com 1.10,2013-02-18 21:59:00,
2013-02-18 16:14:00,21.8,14.0,29.79,NNW,327,11.0,24.0,72,0.00,,,0.00,weatherlink.com 1.10,2013-02-18 22:14:00,
2013-02-18 16:29:00,21.1,14.0,29.79,WNW,298,19.0,28.0,73,0.00,,,0.00,weatherlink.com 1.10,2013-02-18 22:29:00,
2013-02-18 16:44:00,20.6,13.0,29.79,NNW,333,10.0,27.0,73,0.00,,,0.00,weatherlink.com 1.10,2013-02-18 22:44:00,
2013-02-18 16:59:00,20.9,14.0,29.80,WNW,295,10.0,24.0,75,0.00,,,0.00,weatherlink.com 1.10,2013-02-18 22:59:00,
2013-02-18 17:14:00,19.8,13.0,29.81,WNW,292,10.0,21.0,76,0.00,,,0.00,weatherlink.com 1.10,2013-02-18 23:14:00,
2013-02-18 17:29:00,19.2,12.0,29.82,NW,320,23.0,25.0,73,0.00,,,0.00,weatherlink.com 1.10,2013-02-18 23:29:00,
2013-02-18 17:44:00,17.7,10.0,29.83,NW,304,10.0,26.0,72,0.00,,,0.00,weatherlink.com 1.10,2013-02-18 23:44:00,
2013-02-18 18:14:00,16.8,9.0,29.84,NNW,342,15.0,30.0,72,0.00,,,0.00,weatherlink.com 1.10,2013-02-19 00:14:00,
2013-02-18 18:29:00,16.2,10.0,29.84,NW,304,15.0,23.0,77,0.00,,,0.00,weatherlink.com 1.10,2013-02-19 00:29:00,
2013-02-18 18:44:00,15.7,9.0,29.85,NW,307,10.0,27.0,74,0.00,,,0.00,weatherlink.com 1.10,2013-02-19 00:44:00,
2013-02-18 18:59:00,15.3,8.0,29.86,NNW,340,11.0,22.0,74,0.00,,,0.00,weatherlink.com 1.10,2013-02-19 00:59:00,
2013-02-18 19:14:00,15.0,8.0,29.87,NW,324,16.0,27.0,74,0.00,,,0.00,weatherlink.com 1.10,2013-02-19 01:14:00,
2013-02-18 19:30:00,13.8,6.0,29.88,NNW,340,14.0,28.0,71,0.00,,,0.00,weatherlink.com 1.10,2013-02-19 01:30:00,
2013-02-18 19:44:00,13.5,7.0,29.87,NNW,332,21.0,21.0,75,0.00,,,0.00,weatherlink.com 1.10,2013-02-19 01:44:00,
2013-02-18 19:59:00,13.5,8.0,29.87,NW,309,10.0,20.0,79,0.00,,,0.00,weatherlink.com 1.10,2013-02-19 01:59:00,
2013-02-18 20:14:00,13.2,9.0,29.88,NW,314,10.0,20.0,82,0.00,,,0.00,weatherlink.com 1.10,2013-02-19 02:14:00,
2013-02-18 20:30:00,12.8,8.0,29.89,NNW,331,13.0,23.0,81,0.00,,,0.00,weatherlink.com 1.10,2013-02-19 02:30:00,
2013-02-18 20:45:00,12.4,7.0,29.89,WNW,295,8.0,21.0,80,0.00,,,0.00,weatherlink.com 1.10,2013-02-19 02:45:00,
2013-02-18 21:00:00,11.8,6.0,29.89,NNW,333,12.0,23.0,77,0.00,,,0.00,weatherlink.com 1.10,2013-02-19 03:00:00,
2013-02-18 21:15:00,11.6,6.0,29.90,NNW,332,30.0,30.0,78,0.00,,,0.00,weatherlink.com 1.10,2013-02-19 03:15:00,
2013-02-18 21:30:00,11.5,4.0,29.91,NW,304,16.0,30.0,73,0.00,,,0.00,weatherlink.com 1.10,2013-02-19 03:30:00,
2013-02-18 21:45:00,10.8,5.0,29.91,NW,316,18.0,30.0,76,0.00,,,0.00,weatherlink.com 1.10,2013-02-19 03:45:00,
2013-02-18 22:15:00,10.2,5.0,29.92,WNW,301,18.0,26.0,78,0.00,,,0.00,weatherlink.com 1.10,2013-02-19 04:15:00,
2013-02-18 22:30:00,10.0,5.0,29.92,NNW,338,9.0,23.0,80,0.00,,,0.00,weatherlink.com 1.10,2013-02-19 04:30:00,
2013-02-18 22:45:00,9.7,5.0,29.92,NW,325,9.0,25.0,81,0.00,,,0.00,weatherlink.com 1.10,2013-02-19 04:45:00,
2013-02-18 23:01:00,9.2,4.0,29.93,WNW,299,14.0,26.0,79,0.00,,,0.00,weatherlink.com 1.10,2013-02-19 05:01:00,
2013-02-18 23:15:00,7.2,1.0,29.94,NNW,340,17.0,27.0,76,0.00,,,0.00,weatherlink.com 1.10,2013-02-19 05:15:00,
2013-02-18 23:30:00,6.9,1.0,29.95,NW,313,8.0,26.0,77,0.00,,,0.00,weatherlink.com 1.10,2013-02-19 05:30:00,
2013-02-18 23:46:00,6.7,1.0,29.96,WNW,296,13.0,26.0,77,0.00,,,0.00,weatherlink.com 1.10,2013-02-19 05:46:00,